CES220 EDDF-ZSPD

Flight info

Callsign CES220
Flight time N/A
Altitude 39100
Route TOBAK8M TOBAK N858 FEDZA Y172 MAG DCT BINKA N746 GORPI DCT KOLJA DCT EVONA DCT NETNA DCT TUKMA P989 MEGAS/K0869F330 P989 OBIBA P997 AKUGI/K0880F350 T635 SADER T580 ADMUR/K0883F370 G117 XV R229 BA R104 ABK A308 TR P982 DARNO/K0880S1190 A575 UDA Y345 POLHO W33 NUVPU W52 MUDAM G212 SOTMU W98 ELKUR W40 YQG W142 DALIM A593 DPX A470 DALNU W166 ZJ W167 SASAN SAS82A
Aircraft B77W/H-SDE1E2E3FGHIJ2J3J4J5M1RWXY/LB1D1

Departure

Time N/A
Airport Frankfurt Main Airport (EDDF)

Arrival

Time 2026-05-07 04:57
Airport Shanghai Pudong International Airport (ZSPD)
Time Latitude Longitude Altitude Speed Heading
2026-05-07 04:26 32.65855 119.12264 39079 ft 505 kts 152°
2026-05-07 04:26 32.60113 119.17013 39057 ft 504 kts 152°
2026-05-07 04:27 32.54350 119.21772 39079 ft 504 kts 152°
2026-05-07 04:27 32.48590 119.26520 39048 ft 504 kts 152°
2026-05-07 04:28 32.43898 119.30383 39058 ft 504 kts 152°
2026-05-07 04:28 32.38137 119.35119 39053 ft 504 kts 152°
2026-05-07 04:29 32.32377 119.39846 38995 ft 505 kts 152°
2026-05-07 04:29 32.29471 119.42227 38645 ft 508 kts 152°
2026-05-07 04:29 32.26577 119.44597 38139 ft 504 kts 151°
2026-05-07 04:30 32.23715 119.46945 37681 ft 498 kts 152°
2026-05-07 04:30 32.20879 119.49270 37248 ft 492 kts 152°
2026-05-07 04:30 32.18090 119.51552 36815 ft 486 kts 152°
2026-05-07 04:30 32.15321 119.53814 36386 ft 481 kts 152°
2026-05-07 04:31 32.12620 119.56017 35970 ft 476 kts 152°
2026-05-07 04:31 32.09879 119.58250 35549 ft 471 kts 152°
2026-05-07 04:31 32.07186 119.60443 35112 ft 468 kts 152°
2026-05-07 04:31 32.04520 119.62613 34679 ft 464 kts 152°
2026-05-07 04:32 32.01872 119.64767 34219 ft 461 kts 152°
2026-05-07 04:32 31.99282 119.66873 33791 ft 458 kts 152°
2026-05-07 04:32 31.96707 119.69076 33312 ft 459 kts 146°
2026-05-07 04:32 31.94345 119.71631 32858 ft 461 kts 139°
2026-05-07 04:33 31.92882 119.73499 32574 ft 460 kts 135°
2026-05-07 04:33 31.90334 119.77494 32010 ft 460 kts 128°
2026-05-07 04:33 31.88559 119.80603 31593 ft 457 kts 127°
2026-05-07 04:33 31.86805 119.83709 31164 ft 454 kts 127°
2026-05-07 04:34 31.85061 119.86791 30757 ft 451 kts 127°
2026-05-07 04:34 31.83884 119.88857 30469 ft 449 kts 127°
2026-05-07 04:34 31.82167 119.91855 30060 ft 446 kts 128°
2026-05-07 04:34 31.80429 119.94869 29586 ft 443 kts 128°
2026-05-07 04:35 31.78702 119.97856 29121 ft 440 kts 128°
2026-05-07 04:35 31.76986 120.00817 28678 ft 436 kts 128°
2026-05-07 04:35 31.75284 120.03751 28250 ft 433 kts 128°
2026-05-07 04:35 31.73594 120.06663 27840 ft 429 kts 128°
2026-05-07 04:36 31.71917 120.09551 27417 ft 426 kts 128°
2026-05-07 04:36 31.70251 120.12416 26995 ft 423 kts 128°
2026-05-07 04:36 31.68598 120.15259 26573 ft 420 kts 128°
2026-05-07 04:36 31.66957 120.18079 26181 ft 418 kts 128°
2026-05-07 04:37 31.65320 120.20892 25783 ft 415 kts 128°
2026-05-07 04:37 31.63690 120.23689 25370 ft 413 kts 127°
2026-05-07 04:37 31.62070 120.26467 24960 ft 411 kts 127°
2026-05-07 04:37 31.60458 120.29231 24557 ft 409 kts 127°
2026-05-07 04:38 31.58885 120.32004 24137 ft 409 kts 122°
2026-05-07 04:38 31.57743 120.35057 23753 ft 409 kts 110°
2026-05-07 04:38 31.56861 120.38171 23321 ft 408 kts 109°
2026-05-07 04:38 31.56006 120.41331 22870 ft 406 kts 109°
2026-05-07 04:39 31.55148 120.44464 22449 ft 403 kts 109°
2026-05-07 04:39 31.54278 120.47558 22050 ft 400 kts 110°
2026-05-07 04:39 31.53392 120.50635 21650 ft 397 kts 110°
2026-05-07 04:39 31.52501 120.53686 21255 ft 395 kts 110°
2026-05-07 04:40 31.51607 120.56722 20862 ft 392 kts 111°
2026-05-07 04:40 31.50716 120.59737 20475 ft 390 kts 111°
2026-05-07 04:40 31.49833 120.62722 20078 ft 388 kts 111°
2026-05-07 04:40 31.48952 120.65700 19685 ft 386 kts 111°
2026-05-07 04:41 31.48074 120.68661 19289 ft 384 kts 111°
2026-05-07 04:41 31.47200 120.71611 18883 ft 382 kts 111°
2026-05-07 04:41 31.46331 120.74545 18485 ft 381 kts 111°
2026-05-07 04:41 31.45461 120.77474 18067 ft 380 kts 111°
2026-05-07 04:42 31.44591 120.80380 17625 ft 378 kts 111°
2026-05-07 04:42 31.43696 120.83265 17202 ft 375 kts 112°
2026-05-07 04:42 31.42801 120.86126 16808 ft 372 kts 112°
2026-05-07 04:42 31.41916 120.88963 16409 ft 369 kts 112°
2026-05-07 04:43 31.41039 120.91776 16028 ft 367 kts 112°
2026-05-07 04:43 31.40434 120.94634 15617 ft 362 kts 94°
2026-05-07 04:43 31.40698 120.97535 15309 ft 356 kts 72°
2026-05-07 04:43 31.41515 121.00241 15022 ft 350 kts 68°
2026-05-07 04:44 31.42356 121.02896 14706 ft 346 kts 69°
2026-05-07 04:44 31.43156 121.05502 14409 ft 343 kts 70°
2026-05-07 04:44 31.43958 121.08165 14114 ft 341 kts 70°
2026-05-07 04:44 31.44707 121.10749 13791 ft 336 kts 75°
2026-05-07 04:45 31.44903 121.13450 13470 ft 330 kts 98°
2026-05-07 04:45 31.44558 121.16094 13198 ft 330 kts 100°
2026-05-07 04:45 31.44228 121.18778 12898 ft 335 kts 99°
2026-05-07 04:45 31.43921 121.21491 12597 ft 337 kts 98°
2026-05-07 04:46 31.43625 121.24221 12284 ft 336 kts 98°
2026-05-07 04:46 31.43334 121.26923 11997 ft 329 kts 98°
2026-05-07 04:46 31.43058 121.29492 11561 ft 312 kts 98°
2026-05-07 04:46 31.42789 121.31976 10961 ft 303 kts 98°
2026-05-07 04:47 31.42525 121.34402 10277 ft 299 kts 98°
2026-05-07 04:47 31.42265 121.36788 9568 ft 296 kts 98°
2026-05-07 04:47 31.42011 121.39114 8854 ft 291 kts 98°
2026-05-07 04:47 31.41757 121.41436 8324 ft 281 kts 98°
2026-05-07 04:48 31.41513 121.43666 7979 ft 276 kts 97°
2026-05-07 04:48 31.41279 121.45940 7657 ft 288 kts 94°
2026-05-07 04:48 31.41276 121.48288 7258 ft 295 kts 86°
2026-05-07 04:48 31.41401 121.50720 6864 ft 292 kts 85°
2026-05-07 04:49 31.41526 121.53005 6501 ft 280 kts 85°
2026-05-07 04:49 31.41634 121.55265 6138 ft 268 kts 86°
2026-05-07 04:49 31.41722 121.57370 5794 ft 257 kts 86°
2026-05-07 04:49 31.41800 121.59412 5486 ft 246 kts 86°
2026-05-07 04:50 31.41870 121.61366 5183 ft 235 kts 86°
2026-05-07 04:50 31.41937 121.63261 4916 ft 231 kts 86°
2026-05-07 04:50 31.42004 121.65164 4668 ft 237 kts 86°
2026-05-07 04:50 31.41857 121.67037 4324 ft 227 kts 112°
2026-05-07 04:51 31.40979 121.68373 4082 ft 203 kts 149°
2026-05-07 04:51 31.39709 121.69036 3879 ft 200 kts 161°
2026-05-07 04:51 31.38397 121.69596 3615 ft 200 kts 163°
2026-05-07 04:51 31.37120 121.70103 3539 ft 195 kts 163°
2026-05-07 04:52 31.35809 121.70608 3507 ft 197 kts 164°
2026-05-07 04:52 31.34516 121.71102 3509 ft 199 kts 164°
2026-05-07 04:52 31.33198 121.71603 3501 ft 199 kts 164°
2026-05-07 04:52 31.31863 121.72111 3269 ft 203 kts 164°
2026-05-07 04:53 31.30531 121.72618 3002 ft 199 kts 164°
2026-05-07 04:53 31.29243 121.73109 2737 ft 188 kts 164°
2026-05-07 04:53 31.28044 121.73566 2500 ft 176 kts 164°
2026-05-07 04:53 31.26898 121.74001 2284 ft 173 kts 165°
2026-05-07 04:54 31.25774 121.74430 2068 ft 163 kts 164°
2026-05-07 04:54 31.24745 121.74820 1862 ft 149 kts 164°
2026-05-07 04:54 31.23754 121.75198 1670 ft 149 kts 164°
2026-05-07 04:54 31.22789 121.75561 1479 ft 148 kts 165°
2026-05-07 04:55 31.21825 121.75926 1287 ft 145 kts 164°
2026-05-07 04:55 31.20870 121.76291 1095 ft 145 kts 165°
2026-05-07 04:55 31.19949 121.76639 950 ft 146 kts 164°
2026-05-07 04:55 31.18978 121.77010 753 ft 145 kts 164°
2026-05-07 04:56 31.18048 121.77362 568 ft 138 kts 165°
2026-05-07 04:56 31.17123 121.77715 388 ft 139 kts 163°
2026-05-07 04:56 31.16197 121.78067 212 ft 143 kts 162°
2026-05-07 04:56 31.15246 121.78424 44 ft 143 kts 162°
2026-05-07 04:57 31.14371 121.78754 27 ft 118 kts 162°
2026-05-07 04:57 31.13707 121.79002 27 ft 82 kts 162°
2026-05-07 04:57 31.13310 121.79155 30 ft 42 kts 159°
2026-05-07 04:57 31.13174 121.79270 30 ft 18 kts 135°
2026-05-07 04:58 31.13086 121.79377 28 ft 18 kts 134°
2026-05-07 04:58 31.12989 121.79475 28 ft 18 kts 149°
2026-05-07 04:58 31.12870 121.79530 28 ft 18 kts 162°
2026-05-07 04:58 31.12748 121.79576 28 ft 18 kts 162°
2026-05-07 04:59 31.12649 121.79651 28 ft 12 kts 98°
2026-05-07 04:59 31.12669 121.79749 -13 ft 13 kts 76°
2026-05-07 04:59 31.12675 121.79771 17 ft 0 kts 71°
2026-05-07 04:59 31.12677 121.79773 28 ft 0 kts 76°
2026-05-07 05:00 31.12678 121.79775 28 ft 1 kts 73°
2026-05-07 05:00 31.12691 121.79823 28 ft 11 kts 72°
2026-05-07 05:00 31.12725 121.79943 28 ft 20 kts 72°
2026-05-07 05:00 31.12777 121.80133 28 ft 29 kts 72°
2026-05-07 05:01 31.12847 121.80385 28 ft 35 kts 72°
2026-05-07 05:01 31.12922 121.80654 26 ft 34 kts 72°
2026-05-07 05:01 31.12971 121.80750 28 ft 9 kts 12°
2026-05-07 05:01 31.13036 121.80731 28 ft 10 kts 341°
2026-05-07 05:02 31.13105 121.80703 28 ft 11 kts 340°
2026-05-07 05:02 31.13180 121.80674 28 ft 11 kts 342°
2026-05-07 05:02 31.13256 121.80645 28 ft 11 kts 342°
2026-05-07 05:02 31.13333 121.80617 28 ft 12 kts 343°
2026-05-07 05:03 31.13417 121.80598 28 ft 13 kts 338°
2026-05-07 05:03 31.13455 121.80546 28 ft 3 kts 297°
2026-05-07 05:03 31.13462 121.80529 28 ft 0 kts 297°
2026-05-07 05:03 31.13463 121.80527 28 ft 0 kts 297°
2026-05-07 05:07 31.15474 121.78339 30 ft 0 kts 162°
2026-05-07 05:10 31.17474 121.77579 481 ft 138 kts 163°
2026-05-07 05:10 31.16300 121.78028 223 ft 143 kts 162°
2026-05-07 05:11 31.16011 121.78137 170 ft 144 kts 162°